Weather History for KCKM - March, 2014

Change the Weather History Date:

Monday, March 31, 2014

  Actual Average (KMEM) Record (KMEM)
Temperature  
Mean Temperature 58 °F 58 °F  
Max Temperature 73 °F 69 °F 85 °F (1946)
Min Temperature 44 °F 48 °F 26 °F (1923)
Degree Days  
Heating Degree Days 6 8  
Month to date heating degree days 359  
Since 1 July heating degree days 2808  
Cooling Degree Days 0 1  
Month to date cooling degree days 17  
Year to date cooling degree days 20  
Growing Degree Days 8 (Base 50)    
Moisture  
Dew Point 45 °F    
Average Humidity 63    
Maximum Humidity 100    
Minimum Humidity 35    
Precipitation  
Precipitation 0.00 in 0.19 in 2.42 in (1890)
Month to date precipitation 5.16  
Year to date precipitation 13.53  
Snow  
Snow 0.00 in 0.00 in T in (1953)
Month to date snowfall 0.4  
Since 1 July snowfall 3.8  
Snow Depth -    
Sea Level Pressure  
Sea Level Pressure 30.06 in    
Wind  
Wind Speed 5 mph (SSE)    
Max Wind Speed 16 mph    
Max Gust Speed 24 mph    
Visibility 10 miles    
Events      
T = Trace of Precipitation, MM = Missing Value Source: NWS Daily Summary

Daily Weather History Graph

Daily Weather History Graph

Search for Another Location

Airport or City:

Trip Planner

Search our weather history database for the weather conditions in past years. The results will help you decide how hot, cold, wet, or windy it might be!

Date:

Astronomy

Mar. 31, 2014 Rise Set
Actual Time 6:50 AM CDT 7:22 PM CDT
Civil Twilight 6:25 AM CDT 7:47 PM CDT
Nautical Twilight 5:55 AM CDT 8:17 PM CDT
Astronomical Twilight 5:25 AM CDT 8:47 PM CDT
Moon 7:16 AM CDT (3/31) 8:37 PM CDT (3/31)
Length of Visible Light 13h 22m
Length of Day
12h 31m
New Moon, 1% of the Moon is Illuminated
Mar 31
New Moon
Apr 7
First Quarter
Apr 15
Full
Apr 22
Last Quarter
Apr 29
New

Hourly Weather History & Observations

Time (CDT) Temp. Windchill Dew Point Humidity Pressure Visibility Wind Dir Wind Speed Gust Speed Precip Events Conditions
12:15 AM 50.0 °F - 44.6 °F 82% 30.13 in 10.0 mi Calm Calm - N/A   Unknown
12:35 AM 48.2 °F - 44.6 °F 87% 30.13 in 10.0 mi Calm Calm - N/A   Unknown
12:55 AM 46.4 °F - 44.6 °F 93% 30.13 in 10.0 mi Calm Calm - N/A   Unknown
1:15 AM 46.4 °F - 46.4 °F 100% 30.13 in 10.0 mi Calm Calm - N/A   Unknown
1:35 AM 48.2 °F - 44.6 °F 87% 30.12 in 10.0 mi Calm Calm - N/A   Unknown
1:55 AM 48.2 °F - 42.8 °F 82% 30.12 in 10.0 mi Calm Calm - N/A   Unknown
2:15 AM 48.2 °F - 44.6 °F 87% 30.12 in 10.0 mi Calm Calm - N/A   Unknown
2:35 AM 46.4 °F - 44.6 °F 93% 30.12 in 10.0 mi Calm Calm - N/A   Unknown
2:55 AM 46.4 °F 42.4 °F 42.8 °F 87% 30.10 in 10.0 mi ESE 8.1 mph - N/A   Unknown
3:15 AM 46.4 °F 42.9 °F 42.8 °F 87% 30.09 in 10.0 mi ESE 6.9 mph - N/A   Unknown
3:35 AM 48.2 °F - 42.8 °F 82% 30.09 in 10.0 mi ESE 6.9 mph - N/A   Unknown
3:55 AM 46.4 °F - 42.8 °F 87% 30.09 in 10.0 mi Calm Calm - N/A   Unknown
4:15 AM 46.4 °F 44.3 °F 42.8 °F 87% 30.09 in 10.0 mi SE 4.6 mph - N/A   Unknown
4:35 AM 44.6 °F - 42.8 °F 93% 30.09 in 10.0 mi Calm Calm - N/A   Unknown
4:55 AM 44.6 °F - 42.8 °F 93% 30.09 in 10.0 mi Calm Calm - N/A   Unknown
5:15 AM 44.6 °F - 42.8 °F 93% 30.09 in 10.0 mi Calm Calm - N/A   Unknown
5:35 AM 44.6 °F - 41.0 °F 87% 30.09 in 10.0 mi Calm Calm - N/A   Unknown
5:55 AM 44.6 °F 40.2 °F 41.0 °F 87% 30.09 in 10.0 mi ESE 8.1 mph - N/A   Unknown
6:15 AM 44.6 °F 41.4 °F 41.0 °F 87% 30.10 in 10.0 mi SE 5.8 mph - N/A   Unknown
6:35 AM 46.4 °F 42.4 °F 41.0 °F 81% 30.10 in 10.0 mi ESE 8.1 mph - N/A   Unknown
6:55 AM 46.4 °F 42.4 °F 41.0 °F 81% 30.10 in 10.0 mi SE 8.1 mph - N/A   Unknown
7:15 AM 46.4 °F 41.9 °F 41.0 °F 81% 30.11 in 10.0 mi SE 9.2 mph - N/A   Unknown
7:35 AM 46.4 °F - 41.0 °F 81% 30.12 in 10.0 mi Calm Calm - N/A   Unknown
7:55 AM 48.2 °F - 42.8 °F 82% 30.12 in 10.0 mi SE 6.9 mph - N/A   Unknown
8:15 AM 50.0 °F - 44.6 °F 82% 30.12 in 10.0 mi SE 8.1 mph - N/A   Unknown
8:35 AM 53.6 °F - 44.6 °F 72% 30.12 in 9.0 mi SE 10.4 mph - N/A   Unknown
8:55 AM 53.6 °F - 44.6 °F 72% 30.12 in 10.0 mi SE 9.2 mph - N/A   Unknown
9:15 AM 55.4 °F - 44.6 °F 67% 30.12 in 10.0 mi SE 9.2 mph - N/A   Unknown
9:35 AM 57.2 °F - 46.4 °F 67% 30.12 in 10.0 mi SSE 8.1 mph - N/A   Unknown
9:55 AM 59.0 °F - 46.4 °F 63% 30.12 in 10.0 mi SSE 9.2 mph - N/A   Unknown
10:15 AM 62.6 °F - 46.4 °F 55% 30.12 in 10.0 mi SSE 12.7 mph - N/A   Unknown
10:35 AM 62.6 °F - 46.4 °F 55% 30.12 in 10.0 mi South 13.8 mph - N/A   Unknown
10:55 AM 64.4 °F - 48.2 °F 56% 30.12 in 3.0 mi SSE 11.5 mph - N/A   Unknown
11:15 AM 64.4 °F - 48.2 °F 56% 30.12 in 7.0 mi SSE 11.5 mph - N/A   Unknown
11:35 AM 66.2 °F - 48.2 °F 52% 30.11 in 5.0 mi SSE 15.0 mph - N/A   Unknown
11:55 AM 66.2 °F - 46.4 °F 49% 30.11 in 10.0 mi South 11.5 mph - N/A   Unknown
12:15 PM 68.0 °F - 46.4 °F 46% 30.10 in 10.0 mi South 15.0 mph 20.7 mph N/A   Unknown
12:35 PM 68.0 °F - 46.4 °F 46% 30.09 in 10.0 mi SSE 16.1 mph - N/A   Unknown
12:55 PM 68.0 °F - 46.4 °F 46% 30.08 in 10.0 mi South 16.1 mph 21.9 mph N/A   Unknown
1:15 PM 68.0 °F - 48.2 °F 49% 30.08 in 10.0 mi SSE 12.7 mph - N/A   Unknown
1:35 PM 69.8 °F - 46.4 °F 43% 30.07 in 10.0 mi South 13.8 mph 17.3 mph N/A   Unknown
1:55 PM 69.8 °F - 46.4 °F 43% 30.06 in 10.0 mi SSE 12.7 mph - N/A   Unknown
2:15 PM 71.6 °F - 48.2 °F 43% 30.04 in 10.0 mi SSE 15.0 mph 19.6 mph N/A   Unknown
2:35 PM 71.6 °F - 46.4 °F 41% 30.03 in 10.0 mi SSE 16.1 mph - N/A   Unknown
2:55 PM 71.6 °F - 46.4 °F 41% 30.02 in 10.0 mi SSE 16.1 mph 20.7 mph N/A   Unknown
3:15 PM 71.6 °F - 46.4 °F 41% 30.01 in 10.0 mi South 13.8 mph 20.7 mph N/A   Unknown
3:35 PM 73.4 °F - 44.6 °F 36% 30.01 in 10.0 mi SSE 13.8 mph - N/A   Unknown
3:55 PM 71.6 °F - 42.8 °F 35% 30.00 in 10.0 mi South 11.5 mph 20.7 mph N/A   Unknown
4:15 PM 71.6 °F - 44.6 °F 38% 30.00 in 10.0 mi SSE 16.1 mph 21.9 mph N/A   Unknown
4:35 PM 71.6 °F - 46.4 °F 41% 30.00 in 10.0 mi South 12.7 mph 18.4 mph N/A   Unknown
4:55 PM 71.6 °F - 44.6 °F 38% 30.00 in 10.0 mi South 10.4 mph - N/A   Unknown
5:15 PM 71.6 °F - 46.4 °F 41% 29.99 in 10.0 mi South 10.4 mph - N/A   Unknown
5:35 PM 69.8 °F - 46.4 °F 43% 29.99 in 10.0 mi South 9.2 mph - N/A   Unknown
5:55 PM 69.8 °F - 48.2 °F 46% 29.99 in 10.0 mi South 6.9 mph - N/A   Unknown
6:15 PM 68.0 °F - 48.2 °F 49% 29.99 in 10.0 mi South 3.5 mph - N/A   Unknown
6:35 PM 68.0 °F - 50.0 °F 52% 30.01 in 10.0 mi Calm Calm - N/A   Unknown
6:55 PM 66.2 °F - 50.0 °F 56% 30.01 in 10.0 mi Calm Calm - N/A   Unknown
7:15 PM 66.2 °F - 50.0 °F 56% 30.00 in 10.0 mi Calm Calm - N/A   Unknown
7:35 PM 64.4 °F - 50.0 °F 59% 30.00 in 10.0 mi Calm Calm - N/A   Unknown
7:55 PM 64.4 °F - 50.0 °F 59% 29.98 in 10.0 mi SE 9.2 mph - N/A   Unknown
8:15 PM 66.2 °F - 46.4 °F 49% 29.94 in 10.0 mi SE 13.8 mph - N/A   Unknown
8:35 PM 66.2 °F - 46.4 °F 49% 29.95 in 10.0 mi SSE 15.0 mph - N/A   Unknown
8:55 PM 68.0 °F - 44.6 °F 43% 29.95 in 10.0 mi SSE 15.0 mph 19.6 mph N/A   Unknown
9:15 PM 68.0 °F - 44.6 °F 43% 29.95 in 10.0 mi South 10.4 mph 24.2 mph N/A   Unknown
9:35 PM 68.0 °F - 44.6 °F 43% 29.97 in 10.0 mi South 9.2 mph - N/A   Unknown
9:55 PM 66.2 °F - 44.6 °F 46% 29.97 in 10.0 mi Calm Calm - N/A   Unknown
10:15 PM 66.2 °F - 44.6 °F 46% 29.98 in 10.0 mi Calm Calm - N/A   Unknown
10:35 PM 62.6 °F - 48.2 °F 59% 29.99 in 10.0 mi Calm Calm - N/A   Unknown
10:55 PM 62.6 °F - 46.4 °F 55% 30.01 in 10.0 mi WSW 6.9 mph - N/A   Unknown
11:15 PM 62.6 °F - 44.6 °F 52% 30.01 in 10.0 mi Calm Calm - N/A   Unknown
11:35 PM 62.6 °F - 46.4 °F 55% 30.02 in 10.0 mi Calm Calm - N/A   Unknown
11:55 PM 62.6 °F - 46.4 °F 55% 30.02 in 10.0 mi Calm Calm - N/A   Unknown